www.pogodaiklimat.ru

Погода и климат >> Архив погоды >> Украина >> Харьков


АРХИВ ПОГОДЫ в Харькове

Время (UTC), дата Ветер
(напр.,м/с)
 
Видим.   Явления Облачность Т
(С)
Тd
(С)
f
(%)
Тe
(С)
Тes
(С)
Комфортность P
(гПа)
Po
(гПа)
Тmin
(С)
Tmax
(С)
R
(мм)
R24
(мм)
S
(см)
06 17.06 С 1 10 км 4/0
[Ac trans Ci fib]
+20.5 +8.8 47 +23 +32 комфорт 1008.9 991.0 +12.0
09 17.06 СЗ 3 10 км 8/5 1000 м
[Cu med, cong Ac trans]
+23.3 +7.5 36 +24 +29 комфорт 1008.8 991.1
12 17.06 ЮЗ 6 10 км 8/6 1000 м
[Cb cap Ac trans]
+20.5 +11.1 55 +22 +24 комфорт 1009.2 991.3
15 17.06 Ю 3 10 км 8/5 1000 м
[Cb calv Ac trans]
+22.1 +10.7 48 +24 +25 комфорт 1008.8 991.0
18 17.06 штиль 0 10 км {ливн. осадки} 8/3 1000 м
[Sc Ac trans]
+18.2 +11.1 63 +18 +18 по сезону 1010.0 991.9 +24.9 0.0
21 17.06 СЗ 2 10 км 6/0
[Ac trans]
+16.2 +13.0 81 +16 +16 по сезону 1010.8 992.6
00 18.06 СЗ 2 10 км 4/0
[Ac trans]
+14.1 +12.6 91 +14 +14 по сезону 1011.6 993.3
03 18.06 С 1 10 км 3/0
[Ac trans]
+15.2 +11.9 81 +16 +17 по сезону 1011.9 993.6
06 18.06 СВ 4 10 км 3/0
[Ac trans]
+21.6 +8.4 43 +23 +28 комфорт 1012.4 994.5 +13.0
09 18.06 С 5 10 км 5/5 1000 м
[Cu med, cong]
+24.1 +7.1 34 +24 +29 комфорт 1012.9 995.1
12 18.06 С 3 10 км 6/5 1000 м
[Cu med, cong Ac trans]
+25.1 +4.7 27 +25 +30 комфорт 1012.1 994.4
15 18.06 С 3 10 км 4/3 1000 м
[Cu med, cong Ac trans]
+24.8 +5.4 29 +24 +26 комфорт 1011.9 994.2
18 18.06 СВ 3 10 км 5/3 1000 м
[Sc diur, vesp Ac trans]
+20.4 +7.9 44 +22 +22 комфорт 1013.3 995.3 +25.7
21 18.06 штиль 0 10 км 5/0
[Ac trans]
+18.3 +9.4 56 +19 +19 тепло 1013.6 995.5
00 19.06 СЗ 2 10 км ясно +13.8 +10.4 80 +13 +13 по сезону 1013.8 995.4
03 19.06 З 1 10 км ясно +14.5 +10.5 77 +15 +16 по сезону 1013.8 995.4
06 19.06 З 2 10 км ясно +21.8 +11.0 50 +24 +33 комфорт 1013.0 995.1 +12.3
09 19.06 С 2 10 км 6/6 1000 м
[Cu hum]
+25.4 +6.7 30 +25 +32 комфорт 1012.0 994.3
12 19.06 СЗ 4 10 км 8/6 1000 м
[Cu hum Ci fib]
+24.8 +6.3 30 +25 +28 комфорт 1010.9 993.2
15 19.06 З 3 10 км 8/8 1000 м
[Sc diur, vesp]
+25.4 +6.8 30 +25 +26 комфорт 1009.9 992.3
18 19.06 ЮЗ 2 10 км 5/0
[Ac trans]
+22.6 +10.0 45 +24 +24 комфорт 1010.0 992.2 +27.0
21 19.06 З 2 10 км 9/0
[Ac trans]
+20.3 +12.3 60 +23 +23 комфорт 1010.0 992.1
00 20.06 З 2 10 км 4/0
[Ac trans]
+17.3 +11.2 67 +18 +18 тепло 1009.9 991.8
03 20.06 СЗ 2 10 км ясно +17.2 +12.5 74 +18 +19 по сезону 1009.9 991.8
06 20.06 З 2 10 км ясно +23.9 +13.7 53 +26 +36 жарко 1009.3 991.6 +15.1
09 20.06 З 5 10 км 8/8 1000 м
[Cu med, cong]
+26.7 +10.6 36 +27 +29 жарко 1008.6 991.1
12 20.06 СЗ 6 10 км 6/6 1000 м
[Cu med, cong]
+28.8 +10.9 33 +29 +31 жарко 1007.5 990.1
15 20.06 СЗ 5 10 км 4/4 1000 м
[Cu med, cong]
+28.2 +10.7 34 +29 +30 жарко 1006.8 989.4
18 20.06 З 2 10 км 3/0
[Ci fib]
+24.4 +12.3 47 +26 +26 жарко 1007.1 989.5 +29.4
21 20.06 СЗ 1 10 км ясно +20.1 +13.1 64 +23 +23 комфорт 1007.4 989.5
00 21.06 ЮЗ 2 10 км ясно +17.4 +13.0 75 +18 +18 тепло 1006.7 988.7
03 21.06 ЮЗ 2 10 км 5/0
[Ac cast Ci fib]
+17.5 +13.5 77 +18 +19 по сезону 1006.0 988.0
06 21.06 З 5 10 км 6/4 1000 м
[Cb calv Ac trans]
+24.7 +13.7 50 +27 +29 жарко 1004.8 987.2 +16.4
09 21.06 З 6 10 км 6/3 1000 м
[Cu hum Ac trans Ci fib]
+25.8 +12.8 44 +28 +31 жарко 1004.6 987.1
12 21.06 З 6 10 км слабый ливневой дождь 8/6 1000 м
[Cb calv Ac trans]
+26.5 +13.8 46 +29 +30 жарко 1004.1 986.7
15 21.06 З 6 10 км {ливн. осадки} 5/4 1000 м
[Cu med, cong Ci fib]
+25.3 +8.6 35 +26 +27 жарко 1004.4 986.9
18 21.06 СЗ 4 10 км {ливн. осадки} 3/0
[Ac trans]
+20.7 +5.5 37 +22 +22 комфорт 1006.6 988.7 +26.9 0.0
21 21.06 СЗ 3 10 км ясно +16.7 +4.5 44 +17 +17 по сезону 1008.4 990.2
00 22.06 З 2 10 км ясно +12.7 +4.7 58 +12 +12 прохладно 1009.3 990.9
03 22.06 З 2 10 км 3/0
[Ci fib]
+13.4 +5.3 58 +13 +14 прохладно 1009.7 991.3
06 22.06 З 4 10 км 3/0
[Ac trans]
+18.8 +6.7 45 +19 +24 по сезону 1010.0 992.0 +10.7
09 22.06 З 5 10 км 6/4 1000 м
[Cu hum Ci fib]
+21.6 +6.3 37 +22 +27 комфорт 1010.3 992.4
12 22.06 З 4 10 км 6/6 1000 м
[Cu hum]
+22.8 +5.0 31 +23 +27 комфорт 1010.0 992.2
15 22.06 З 5 10 км 6/4 1000 м
[Sc diur, vesp Ci fib]
+22.6 +5.0 32 +23 +24 комфорт 1009.9 992.1
18 22.06 З 2 10 км 3/0
[Ci fib]
+19.2 +5.4 40 +20 +20 по сезону 1010.8 992.8 +23.6
21 22.06 ЮЗ 1 10 км ясно +15.4 +7.6 60 +16 +16 по сезону 1011.9 993.6
00 23.06 штиль 0 10 км 3/0
[Ac trans]
+12.0 +7.3 73 +12 +12 прохладно 1011.9 993.4
03 23.06 штиль 0 10 км 3/0
[Ac trans]
+12.6 +8.4 76 +12 +13 холодно 1011.3 992.9
06 23.06 ЮЗ 5 10 км 5/0
[Ci fib]
+21.0 +6.5 39 +22 +27 комфорт 1010.3 992.4 +10.8
09 23.06 З 4 10 км 8/3 1000 м
[Cu hum Cc]
+23.8 +5.8 31 +24 +31 комфорт 1009.6 991.9
12 23.06 ЮЗ 4 10 км 8/3 1000 м
[Cu hum Ac trans]
+24.8 +7.2 32 +25 +29 комфорт 1007.5 989.9
15 23.06 З 3 10 км 9/3 1000 м
[Sc Ac trans Ci fib]
+24.4 +7.4 34 +25 +26 комфорт 1006.0 988.4
18 23.06 ЮВ 2 10 км 10/4 1000 м
[Sc Ac und]
+21.4 +9.8 48 +23 +23 комфорт 1004.7 986.9 +25.7
21 23.06 З 2 7000 м слабый ливневой дождь 10/10 600 м
[Cb cap]
+16.7 +13.7 82 +17 +17 по сезону 1005.1 987.1
00 24.06 В 1 10 км в посл. час ливневой дождь 10/10 600 м
[Cb cap]
+15.2 +14.1 93 +16 +16 по сезону 1002.0 983.9
03 24.06 С 4 10 км слабый ливневой дождь 10/10 150 м
[Cb cap]
+14.4 +13.5 94 +13 +13 прохладно 1002.8 984.7

 

Местоположение метеостанции Харьков (Харьковская область, Украина): широта 49.97 долгота 36.13 высота над уровнем моря 155 м.

В архиве по умолчанию представлена погода в Харькове за последнюю неделю. Архивные данные за месяц целиком и за предыдущие месяцы, начиная с января 2011 года, Вы можете получить, выбрав интересующий диапазон дат из раскрывающегося списка и нажав кнопку "Ввод!".

Внимание! Время в таблицах - всемирное. Для получения местного времени необходимо прибавить поправку, которая в Харькове равна 2 ч.

Смотрите также архив погоды в соседних городах и на ближайших метеорологических станциях:

Погода в Золочеве (Львовская область, Украина) (39 км)
Погода в Боходухове (Харьковская область, Украина) (50 км)
Погода в Слобожанском (Донецкая область, Украина) (50 км)
Погода в Коломаке (Харьковская область, Украина) (66 км)
Погода в Белгороде (Белгородская область, Россия) (80 км)
Погода в Краснограде (Харьковская область, Украина) (82 км)
Погода в Великом Бурлуке (Харьковская область, Украина) (90 км)
Погода в Готне (Белгородская область, Россия) (96 км)
Погода в Купянске (Харьковская область, Украина) (119 км)
Погода в Лозовой (Харьковская область, Украина) (120 км)

Пояснения к столбцам:

Ветер - указаны скорость ветра в м/с - средняя за 10 мин, порывы в срок и между сроками (в фигурных скобках) и направление, откуда дует ветер: С - северный, СВ - северо-восточный, В - восточный, ЮВ - юго-восточный, Ю - южный, ЮЗ - юго-западный, З - западный, СЗ - северо-западный.
Видимость - горизонтальная дальность видимости в метрах или километрах. При видимости от 1 до 10 км при отсутствии осадков обычно наблюдается дымка, при ухудшении видимости до 1 км и менее - туман. В сухую погоду видимость может ухудшаться дымом, пылью или мглою.
Явления - указаны атмосферные явления, наблюдавшиеся в срок или в последний час перед сроком; фигурными скобками обозначены явления, наблюдавшиеся между сроками (за 1-3 часа до срока); квадратными скобками обозначены град или гололедные отложения с указанием их диаметра в мм.
Облачность - указаны через наклонную черту общая и нижняя облачность в баллах и высота нижней границы облаков в метрах; квадратными скобками обозначены формы облаков: Ci - перистые, Cs - перисто-слоистые, Cc - перисто-кучевые, Ac - высококучевые, As - высокослоистые, Sc - слоисто-кучевые, Ns - слоисто-дождевые, Cu - кучевые, Cb - кучево-дождевые. Подробнее классификацию облаков см. в Атласе облаков (PDF).
T - Температура воздуха - температура, измеренная на высоте 2 м над землей.
Td - Температура точки росы - температура, при понижении до которой содержащийся в воздухе водяной пар достигнет насыщения.
f - Относительная влажность воздуха - влажноcть воздуха, измеренная на высоте 2 м над землей.
Te - Эффективная температура - температура, которую ощущает одетый по сезону человек в тени. Характеристика душности погоды. При расчете учитывается влияние влажности воздуха и скорости ветра на теплоощущения человека.
Tes - Эффективная температура на солнце - температура, которую ощущает человек, с поправкой на солнечный нагрев. Характеристика знойности погоды. Зависит от высоты солнца над горизонтом, облачности и скорости ветра. Ночью, в пасмурную погоду, а также при ветре 12 м/с и более поправка равна нулю.
P - Атмосферное давление - приведенное к уровню моря атмосферное давление.
Po - Атмосферное давление - измеренное на уровне метеостанции атмосферное давление.
Tmin - Минимальная температура - минимум температуры воздуха на высоте 2 м над землей.
Tmax - Максимальная температура - максимум температуры воздуха на высоте 2 м над землей.
R - Количество осадков - Количество выпавших осадков за период времени, мм. При наведении курсора мыши на число - период времени, за который выпало указанное количество осадков.
R24 - Количество осадков - Количество выпавших осадков за 24 часа, мм.
S - Снежный покров - Высота снежного покрова, см. При наведении курсора мыши на число - состояние снежного покрова и степень покрытия местности в баллах.